GFSGL_sfc_thetae_024.txt.gz
Theta_e
287 287 286 285 283 281 281 280 279 278 278 277 277 277 277 277 277 276 276 276 276 276 276 276 276 276 276 276 276 276 276 276 273 275 277 277 277 276 277 278 279 279 280
287 286 285 282 281 280 279 278 278 277 277 276 276 276 275 275 275 275 274 275 274 274 274 274 274 275 274 274 274 274 274 274 273 271 274 274 274 276 276 276 278 279 279
286 284 283 281 281 279 277 277 277 276 275 275 275 274 274 275 274 274 274 273 273 273 273 273 273 273 273 274 274 274 274 275 274 272 272 274 274 275 275 276 276 277 279
286 284 282 281 279 277 277 276 275 275 274 274 274 274 274 273 274 273 274 273 273 273 274 274 274 274 274 274 274 273 274 273 273 272 272 273 274 275 275 273 273 277 279
284 283 281 279 277 276 275 275 274 274 274 274 274 274 273 273 273 272 273 273 273 273 274 275 275 275 276 276 275 274 274 273 273 272 272 272 272 273 273 275 274 275 277
283 281 279 276 276 275 275 274 274 274 274 274 273 273 272 272 275 277 276 274 274 274 273 273 274 274 275 277 278 278 278 274 273 272 272 271 273 273 274 274 274 273 273
280 278 276 276 274 274 274 274 273 273 273 272 272 272 271 272 275 276 277 275 274 273 273 273 273 274 274 274 276 277 277 278 278 275 272 272 272 274 275 275 275 275 275
278 277 275 274 273 273 273 272 272 272 272 271 271 271 271 271 274 275 275 274 274 273 273 273 273 274 275 275 275 274 274 275 275 276 275 274 274 275 275 275 275 275 277
276 275 274 274 273 272 271 270 271 271 271 271 271 270 269 268 272 274 275 273 273 272 273 274 274 274 275 277 274 272 272 273 277 278 278 279 280 280 281 277 274 273 272
275 274 274 274 273 271 271 270 271 271 270 270 270 270 269 267 271 274 275 273 270 272 274 274 275 273 276 277 274 273 270 271 273 273 274 275 277 276 278 278 278 275 275
275 273 272 272 271 271 270 270 269 269 269 268 268 268 269 269 269 273 275 274 272 273 271 271 272 274 276 276 276 272 271 274 274 273 273 274 275 275 275 276 277 276 275
272 271 269 269 269 269 267 267 267 267 266 266 266 268 270 272 272 272 275 276 276 271 271 271 271 276 274 275 273 274 275 274 269 269 270 273 273 274 275 276 278 278 279
270 268 267 267 267 267 266 265 265 266 266 266 267 268 268 270 270 272 273 275 274 272 271 273 273 272 272 270 271 273 271 268 268 267 268 271 274 276 277 277 279 280 279
267 266 266 266 265 265 266 266 266 265 266 267 268 267 267 267 268 269 271 269 273 271 272 266 268 269 269 269 267 269 269 268 268 268 268 270 272 273 275 278 277 278 277
266 265 265 265 265 265 266 266 267 268 268 267 266 266 264 262 266 272 272 271 270 271 265 262 262 263 264 264 265 266 267 267 267 268 268 268 270 271 272 275 278 278 276
265 265 265 265 265 266 265 266 271 270 271 271 271 268 267 270 272 272 273 273 271 271 258 259 261 262 262 263 263 264 266 266 266 268 268 268 268 268 269 271 273 276 277
267 266 265 266 265 264 264 263 263 267 270 270 269 269 269 269 270 271 271 270 269 265 252 258 259 260 261 262 263 264 264 266 267 268 267 267 267 267 267 267 269 272 276
267 266 265 265 265 265 264 263 263 261 260 262 266 266 267 268 269 269 269 263 255 259 254 257 258 259 261 261 263 263 264 265 266 267 267 267 266 265 264 265 266 268 270
266 265 265 265 264 264 263 262 262 261 260 259 259 263 261 266 267 266 264 251 249 251 256 256 258 259 260 261 262 263 264 263 267 267 267 265 265 264 264 264 265 266 267
265 265 264 263 262 261 261 260 260 259 258 257 256 254 251 252 248 247 248 247 247 249 254 256 257 258 259 260 262 263 264 264 267 267 266 265 265 264 264 264 265 265 265
264 262 262 261 261 261 260 259 259 258 257 255 253 252 261 250 247 245 245 246 246 248 252 255 256 257 259 260 262 262 263 264 267 267 266 265 265 264 264 265 265 265 266
262 260 261 260 260 260 259 258 258 257 256 254 251 253 262 250 247 245 245 245 246 247 250 252 255 256 258 260 261 262 263 264 267 267 266 265 265 264 264 264 264 265 266
261 260 260 259 259 258 258 257 257 256 255 253 253 253 250 247 246 245 244 245 246 249 249 250 253 256 258 260 261 263 265 264 269 268 266 265 265 264 264 263 263 264 266
261 260 259 257 258 257 257 256 256 255 254 253 252 249 249 246 244 245 245 245 248 249 249 250 253 254 257 259 261 263 265 267 271 268 266 265 265 264 264 263 263 264 265
260 259 258 257 257 256 256 255 254 254 253 254 251 250 247 247 246 245 245 246 248 248 250 251 252 254 255 257 260 263 265 270 271 268 267 266 265 264 264 263 263 263 265
259 259 258 258 257 256 256 255 254 254 253 252 251 249 248 247 247 245 246 247 249 249 249 251 252 252 254 258 262 264 267 272 271 268 267 266 264 264 264 263 263 263 263

GFSGL_sfc_thetae_027.txt.gz
Theta_e
287 288 288 286 285 282 283 283 281 280 279 278 278 277 277 277 277 276 276 276 276 276 276 276 277 277 276 276 277 276 275 275 272 274 276 277 277 276 277 278 278 277 278
288 287 286 284 282 282 282 280 279 279 278 277 277 277 276 276 276 275 275 275 275 274 275 274 274 275 274 274 274 274 274 274 273 271 273 274 275 276 276 276 277 278 277
287 285 284 282 282 282 280 278 278 277 277 277 276 275 275 275 275 275 275 274 274 273 273 273 273 273 273 273 273 273 274 275 274 273 272 274 274 275 275 275 276 276 277
286 284 283 283 282 281 278 278 278 277 276 275 275 275 275 275 275 274 274 273 273 273 274 274 273 273 273 273 274 274 274 273 273 272 272 272 273 275 275 273 273 275 275
285 284 283 282 281 277 277 277 276 276 275 275 274 274 274 274 274 274 274 273 273 273 274 274 275 275 276 276 275 274 275 274 273 273 272 273 273 274 273 274 273 274 275
284 283 282 280 278 277 277 276 276 275 274 274 274 274 273 273 276 278 276 274 274 274 273 274 274 274 275 277 278 279 278 274 273 273 273 272 272 273 274 273 272 271 270
284 282 279 278 277 276 276 275 275 274 274 274 274 273 273 273 277 278 278 276 275 274 273 273 274 274 274 274 276 278 278 278 279 276 273 273 272 273 274 273 273 272 272
282 280 278 277 276 275 274 274 273 273 273 273 273 273 272 273 277 277 277 275 274 274 273 273 273 273 275 275 275 274 275 275 276 276 275 275 275 276 276 275 274 273 274
279 278 277 276 275 274 273 273 273 273 273 272 272 272 272 272 276 276 275 274 274 273 273 274 274 274 276 277 275 274 273 273 277 278 278 278 279 280 280 277 274 273 271
278 278 276 275 274 273 273 272 273 273 272 272 271 271 271 269 273 275 275 272 268 272 273 274 276 274 276 277 275 273 271 270 271 273 273 273 273 273 276 275 274 272 271
276 274 274 274 274 273 272 272 271 272 271 270 270 270 270 270 270 275 275 273 271 271 272 271 273 274 276 277 277 272 270 274 273 268 268 269 270 271 273 276 277 275 272
273 273 273 273 272 271 270 269 270 270 268 268 267 268 270 271 272 274 274 275 275 267 269 271 271 275 275 275 273 274 275 273 267 266 266 267 268 269 271 273 275 276 277
272 270 271 270 270 270 269 268 268 269 268 267 268 268 269 271 271 273 273 274 274 273 271 272 272 272 272 270 271 272 270 266 266 265 265 267 269 271 271 271 273 275 276
271 270 270 268 267 268 269 269 268 267 267 268 268 268 268 268 268 269 269 271 273 271 270 265 268 268 269 269 267 268 267 267 266 266 266 267 269 270 269 271 270 271 271
270 269 268 268 267 267 268 267 268 269 270 269 269 268 267 266 268 271 271 270 265 269 260 258 260 263 263 264 264 265 266 266 266 266 266 266 268 268 268 270 269 268 268
269 268 268 267 267 267 266 267 272 272 274 274 273 270 269 271 273 273 273 272 270 270 254 253 259 260 261 262 262 263 265 265 266 266 265 267 267 268 267 267 267 266 266
270 268 267 267 267 266 267 267 267 272 275 274 273 273 272 272 273 272 272 269 269 263 250 251 256 258 259 261 262 262 263 264 266 266 265 267 268 267 266 265 265 265 265
270 267 267 267 267 267 267 268 268 267 267 268 273 272 272 273 273 272 268 263 253 253 247 249 251 256 258 259 260 261 262 263 264 265 265 268 268 266 265 264 264 264 264
269 268 267 267 267 267 267 266 266 266 265 264 264 268 267 272 272 269 264 254 250 247 247 248 250 255 257 258 259 260 261 262 263 264 265 268 267 266 265 265 265 264 264
269 268 267 266 266 265 265 264 263 263 262 262 261 259 256 258 255 251 252 248 247 249 248 247 251 253 254 256 257 259 260 261 262 265 265 268 267 266 265 264 264 264 264
267 267 266 266 265 265 264 263 262 262 260 260 259 257 261 256 254 252 249 247 246 246 246 246 251 252 253 255 256 258 259 261 263 265 266 267 266 265 265 265 264 264 264
266 265 265 264 263 262 262 262 261 260 259 258 257 259 265 255 253 251 247 246 246 244 246 247 249 251 252 254 256 257 258 260 263 264 267 267 266 265 265 264 264 264 264
264 263 262 262 262 261 260 260 259 259 258 257 257 256 254 252 250 248 247 246 244 244 245 244 247 250 252 253 255 257 258 261 263 266 267 266 265 265 265 264 263 263 263
263 262 261 260 260 260 259 258 258 257 256 256 255 253 253 251 249 248 247 245 242 245 245 245 246 248 250 253 255 257 259 262 265 268 267 266 265 265 264 264 264 263 263
262 261 260 260 259 258 258 257 257 256 255 255 253 253 251 252 250 247 246 242 244 244 246 247 247 249 250 251 253 255 259 263 266 269 267 266 265 264 264 264 263 263 262
261 260 259 259 258 258 257 256 256 256 255 254 253 252 252 251 249 247 245 244 246 246 247 247 249 249 250 252 255 259 263 266 270 269 267 266 265 264 264 263 263 263 262

GFSGL_sfc_thetae_033.txt.gz
Theta_e
288 289 289 289 289 288 286 286 286 284 283 283 282 282 281 280 280 279 278 278 277 277 277 277 277 278 276 276 278 277 276 275 271 274 276 276 276 276 277 277 278 278 278
289 288 288 288 287 287 286 285 285 284 283 283 282 281 281 280 280 279 278 278 277 276 276 276 276 277 275 275 275 274 274 274 273 271 274 274 275 276 276 276 277 278 278
287 287 286 286 286 286 286 285 284 283 282 282 281 280 280 280 279 278 278 277 276 276 275 275 274 274 274 274 273 273 273 274 273 272 272 274 275 275 275 276 276 277 278
287 286 286 286 286 287 287 285 283 283 282 281 281 280 280 279 278 278 277 276 275 275 275 275 274 274 274 273 273 273 274 273 273 272 272 273 274 276 276 274 274 276 276
287 286 286 287 287 286 285 284 283 282 282 281 280 279 278 278 277 277 276 275 274 274 274 275 274 274 276 276 274 273 273 271 272 272 272 273 273 274 273 275 274 274 275
287 287 287 286 285 285 284 283 282 281 280 280 278 278 276 277 281 282 277 275 274 274 273 274 274 275 275 278 279 280 278 272 270 271 272 272 273 274 275 274 273 272 270
286 287 286 285 284 284 283 281 280 279 279 278 278 277 276 276 283 283 280 275 274 274 274 274 275 275 275 275 277 278 278 279 279 276 273 273 273 274 275 273 273 273 272
285 286 284 284 283 282 280 279 279 279 278 277 276 276 275 275 284 283 280 275 274 274 275 275 275 275 275 274 274 274 274 275 276 276 275 275 276 277 276 276 276 273 272
281 281 280 280 280 278 278 277 278 278 277 277 276 276 275 276 284 283 280 275 275 275 275 275 275 274 276 277 276 273 273 275 278 279 279 280 280 280 279 273 269 267 266
280 280 278 279 278 277 278 276 277 277 277 276 275 276 275 276 283 283 280 276 274 274 274 275 276 275 277 278 273 270 271 272 273 271 273 275 274 273 274 272 270 266 266
277 276 275 276 278 278 277 276 276 276 275 275 274 274 275 276 280 283 282 275 274 273 272 273 274 278 278 277 278 273 271 274 272 269 268 268 269 270 270 271 271 270 267
274 274 274 273 273 276 275 274 274 274 273 273 272 272 273 275 279 283 282 278 277 272 272 273 273 276 276 277 275 275 275 275 265 264 264 265 267 268 270 271 272 272 272
275 275 275 276 275 275 273 273 273 273 273 271 271 270 270 271 276 282 282 279 278 273 274 274 275 276 275 273 273 272 271 266 265 263 264 266 268 269 270 270 270 271 271
277 276 275 275 274 274 274 274 274 273 272 272 271 270 270 269 272 276 277 279 278 275 275 273 272 271 270 270 268 269 268 267 266 265 265 267 268 267 267 268 267 268 267
278 277 274 274 273 273 273 273 274 274 275 273 272 271 270 269 271 276 277 276 275 272 266 264 264 265 265 265 265 265 266 265 265 265 265 265 265 266 266 267 267 267 266
273 277 274 274 273 273 272 272 278 277 278 279 278 274 273 275 276 278 279 278 277 275 263 263 263 263 263 264 263 263 264 264 265 264 264 264 264 264 265 265 267 266 266
269 273 276 273 272 271 271 271 270 275 278 279 279 278 276 276 277 278 278 278 277 273 262 263 263 262 262 262 262 262 262 263 264 263 263 263 263 263 263 264 265 266 265
267 270 274 274 272 271 271 270 271 271 270 273 278 277 277 277 278 278 278 278 271 264 260 260 260 259 259 260 260 260 260 260 261 261 261 261 261 261 262 263 264 265 264
266 267 272 273 271 271 270 270 270 270 271 272 273 276 276 278 279 279 280 271 263 260 258 258 257 257 258 258 257 256 256 256 257 257 258 259 260 261 262 263 265 264 264
263 266 269 272 270 269 269 269 269 270 271 271 272 272 274 276 275 272 264 263 262 260 258 257 255 254 253 254 253 252 252 253 254 256 258 259 260 262 262 264 264 263 263
263 265 268 270 269 269 268 268 269 270 270 270 271 273 276 273 267 262 261 260 259 258 256 255 253 251 251 250 249 248 249 253 254 254 257 258 260 261 262 265 264 263 263
263 264 268 268 268 267 268 269 270 269 269 269 268 271 276 264 262 260 259 258 256 255 253 253 252 250 250 249 248 246 249 250 252 253 257 258 259 261 264 264 263 262 262
263 265 267 267 266 267 268 268 268 268 264 265 268 267 263 261 259 258 257 256 254 252 251 250 249 249 248 248 247 248 249 251 252 254 256 257 259 262 264 262 262 261 261
265 266 265 265 265 266 265 265 265 264 264 265 266 261 260 259 258 257 256 254 253 251 250 249 248 248 247 247 247 248 249 251 253 254 256 258 262 264 263 261 261 261 261
265 264 264 264 264 263 263 262 262 263 263 261 260 259 258 257 256 255 254 253 253 252 250 249 249 249 249 249 249 248 250 255 255 257 260 264 264 262 261 260 260 260 261
262 262 262 262 261 261 261 261 261 261 260 259 258 257 257 257 255 254 253 253 252 252 251 251 250 250 249 249 249 252 257 261 262 264 268 268 260 262 261 259 259 260 260

GFSGL_sfc_thetae_036.txt.gz
Theta_e
286 288 288 287 287 286 285 286 286 285 284 283 284 283 282 281 281 281 281 279 279 278 278 278 278 278 277 277 278 278 276 275 271 274 276 276 276 276 277 277 278 278 278
286 286 287 287 285 286 286 286 287 285 285 284 284 283 282 282 281 281 280 279 279 278 277 277 277 278 276 276 276 275 275 275 273 271 273 274 274 275 276 276 277 278 278
285 284 284 284 285 287 287 286 285 285 284 284 283 282 282 282 281 281 281 279 279 278 278 277 276 276 275 275 274 274 274 275 274 272 272 274 274 275 275 276 276 277 278
286 284 284 283 284 286 286 284 284 285 284 284 283 283 282 282 281 281 280 279 278 278 277 277 276 276 275 274 274 274 274 273 273 271 272 273 274 276 276 274 274 275 276
287 287 287 287 285 285 285 285 284 284 284 284 282 282 282 281 280 280 279 279 278 276 276 277 276 276 278 276 274 273 273 271 271 272 271 273 273 274 273 275 273 274 275
284 284 287 286 285 285 286 285 283 283 283 282 281 281 280 280 284 284 281 278 277 276 275 275 275 275 277 280 279 278 276 271 268 270 271 272 273 274 274 273 273 272 271
282 283 284 286 286 285 285 284 282 282 282 281 281 281 280 280 285 285 284 278 277 276 276 275 274 275 275 277 280 281 281 281 279 274 268 273 273 274 274 274 274 274 273
281 282 282 282 284 283 282 282 281 282 281 280 280 280 280 279 285 286 284 278 277 276 275 275 274 274 275 275 275 276 276 276 276 276 275 274 275 277 277 276 275 272 272
282 281 279 279 281 279 280 279 279 280 280 280 280 280 279 279 285 286 283 277 276 275 275 275 275 274 277 279 274 273 273 275 278 280 280 280 279 279 278 272 267 266 266
282 280 278 277 278 278 279 277 279 280 279 279 278 279 278 277 285 286 282 277 274 274 275 275 277 275 279 280 274 273 272 273 274 272 273 274 274 272 274 272 269 264 266
281 280 279 277 277 279 278 278 278 278 276 277 277 277 277 278 282 286 283 277 275 274 274 274 275 279 279 280 279 274 273 274 272 270 269 268 269 270 270 271 271 270 267
277 279 279 278 277 277 277 277 277 277 276 275 275 274 275 277 281 286 283 280 279 275 274 274 275 279 279 280 279 278 278 274 266 265 265 266 267 268 269 270 271 272 272
273 274 277 279 277 276 276 275 275 275 274 273 273 272 272 275 278 285 284 281 280 275 275 276 277 280 280 279 279 277 272 268 264 261 263 265 267 269 270 269 270 270 270
268 270 273 276 277 276 275 275 274 274 274 273 273 272 272 273 276 281 282 279 279 276 277 276 277 277 277 273 273 273 269 268 267 265 265 267 268 267 267 268 266 267 266
267 268 270 271 275 276 275 275 274 275 276 274 274 273 271 271 275 280 281 277 277 274 274 274 272 270 268 267 267 266 267 266 265 266 265 265 265 265 266 267 266 265 263
263 265 267 269 271 275 274 273 279 279 279 280 279 276 274 277 278 281 283 281 279 278 270 268 267 267 266 266 265 265 265 265 265 265 264 264 264 264 264 265 265 264 263
261 262 264 266 268 271 273 272 271 275 280 280 281 280 278 277 279 281 282 282 280 276 268 267 266 266 266 265 265 264 264 265 265 264 263 263 263 263 262 262 263 264 263
260 261 262 263 266 270 272 272 272 272 272 274 279 280 280 279 279 280 282 282 275 272 268 266 265 265 264 264 264 263 263 262 262 262 261 260 258 259 260 261 262 262 262
259 260 261 263 264 266 270 271 271 271 272 272 274 279 278 279 280 280 282 276 273 265 265 265 264 263 262 262 261 260 259 258 259 258 257 258 256 257 259 260 262 262 263
259 260 261 261 262 264 269 270 269 269 270 271 272 274 275 275 275 276 277 274 268 265 263 261 261 260 259 259 257 257 256 255 255 256 256 256 257 258 259 260 261 262 263
259 259 260 261 262 264 268 268 269 268 270 271 272 274 276 273 274 275 268 266 264 262 261 260 258 257 256 255 254 254 253 255 255 254 254 255 256 256 258 260 261 263 263
260 260 260 261 262 265 268 268 268 269 270 270 271 273 278 273 267 265 263 262 261 260 260 259 256 256 255 254 254 253 253 253 252 252 253 255 256 257 258 260 262 263 262
262 261 261 262 263 267 267 267 268 269 270 270 270 270 265 263 262 261 259 258 257 256 256 256 255 253 253 253 252 253 252 251 253 251 252 253 255 256 258 260 262 261 260
263 262 262 263 265 266 266 265 267 265 266 268 263 262 262 261 260 258 257 256 256 254 254 253 253 254 253 252 250 249 250 251 250 250 251 253 255 256 260 263 262 260 259
265 264 264 265 265 264 263 263 263 265 263 262 260 260 260 259 258 257 256 256 254 254 253 253 253 253 252 251 251 251 251 255 254 254 254 255 256 258 262 261 259 259 258
262 262 262 262 262 262 262 262 262 261 260 260 260 260 259 258 257 256 255 255 254 254 254 253 253 251 251 252 252 253 256 259 258 259 259 262 264 264 262 260 256 257 257

GFSGL_sfc_thetae_042.txt.gz
Theta_e
289 290 291 292 292 292 292 293 295 296 296 295 294 294 293 293 292 291 291 291 289 290 289 289 289 289 288 288 287 286 285 287 288 280 283 284 284 284 283 283 284 284 284
289 289 289 290 290 290 291 291 293 293 294 293 293 292 292 291 291 289 289 289 288 288 288 287 287 284 286 286 284 283 283 283 285 280 279 280 281 283 283 282 281 282 283
288 288 288 288 288 288 288 290 291 291 291 292 291 290 290 290 289 289 289 289 288 288 288 286 285 284 284 284 283 282 283 281 283 284 279 280 280 281 280 281 281 282 282
286 287 286 287 286 285 286 288 289 290 290 290 290 289 289 289 288 288 287 288 288 287 287 287 285 283 284 283 282 282 282 281 282 282 281 278 279 280 280 280 279 281 281
284 285 285 286 285 284 285 286 287 288 288 289 289 289 289 288 287 287 287 286 287 286 286 285 284 285 285 285 283 283 282 282 281 280 279 277 277 277 278 280 279 280 280
283 284 286 284 282 283 283 284 285 286 288 288 286 287 288 286 289 289 288 286 285 284 284 284 283 283 284 286 286 285 283 281 279 280 279 277 278 278 279 278 278 277 277
282 283 283 281 280 281 282 282 283 284 286 286 287 287 286 286 289 289 288 285 285 285 284 283 282 282 283 283 286 285 284 285 284 281 279 279 278 279 279 278 278 277 278
281 281 281 279 278 279 279 280 282 283 283 284 285 286 286 286 288 289 288 286 285 285 284 284 282 281 282 282 282 282 281 282 282 280 281 280 281 281 280 280 279 279 279
279 279 280 278 276 277 275 277 279 281 282 283 284 284 285 285 287 288 287 285 284 283 283 284 283 282 282 284 282 280 280 280 283 282 281 282 282 282 281 280 277 275 274
278 278 278 276 275 275 275 275 277 279 281 282 282 284 284 284 286 287 287 286 284 283 283 282 283 282 283 285 281 280 278 278 278 279 280 281 281 280 281 280 278 274 274
277 277 276 275 274 273 273 274 274 276 279 279 280 282 283 283 284 285 286 285 285 283 282 280 280 283 283 284 284 281 280 279 280 280 279 279 279 278 277 277 277 276 274
275 274 273 272 272 272 271 271 272 274 275 277 279 280 282 282 282 283 285 286 287 283 281 281 280 283 283 284 283 282 283 280 279 278 277 276 275 274 274 274 275 275 275
271 270 269 270 269 269 269 269 270 272 273 276 278 278 279 281 280 282 283 284 286 284 282 280 280 282 283 283 284 283 280 278 277 275 274 274 274 274 274 273 273 274 273
267 267 267 267 267 268 268 269 269 271 272 275 277 277 278 279 279 279 279 281 282 284 281 280 280 281 282 282 280 280 278 277 275 274 273 273 272 272 271 272 271 271 271
264 264 265 265 265 265 266 267 268 270 272 272 275 277 276 277 279 279 279 280 282 280 278 278 278 278 279 279 278 277 275 274 273 273 271 270 270 270 270 271 270 270 268
261 261 262 262 262 263 263 264 268 270 272 274 276 277 279 281 281 281 281 282 284 281 276 276 276 277 277 277 275 272 272 272 271 271 270 270 269 269 269 269 269 268 267
258 259 260 260 261 261 261 262 261 265 269 272 274 277 281 281 283 281 281 282 284 281 276 276 276 277 276 275 273 271 270 271 271 270 269 269 269 268 268 267 268 267 267
259 259 259 259 260 260 260 261 261 262 262 266 270 273 278 280 282 282 281 282 281 280 277 276 277 276 274 273 272 271 269 269 269 269 268 268 268 267 266 266 266 266 266
259 259 260 260 260 260 260 260 261 261 262 263 266 270 275 278 281 283 282 279 279 278 276 276 275 274 273 272 271 270 269 268 268 268 267 267 266 265 265 266 266 265 265
260 260 260 260 259 259 260 259 260 260 261 263 265 269 275 276 277 280 279 280 279 277 275 273 273 272 271 270 270 268 267 267 266 266 265 265 265 265 265 265 265 265 265
262 262 261 261 260 260 260 260 260 261 261 263 265 272 275 274 275 278 278 279 279 274 272 270 269 269 269 268 267 266 265 265 264 264 264 264 264 263 264 265 265 264 264
263 263 264 263 262 261 261 261 261 261 262 263 266 272 274 275 277 276 271 271 270 270 270 268 267 266 266 266 266 265 264 263 263 263 263 263 262 263 263 264 264 264 264
263 263 264 265 264 262 262 262 262 262 264 265 270 271 271 269 268 267 266 267 267 266 266 266 265 264 264 265 266 265 264 263 263 263 262 262 262 263 262 263 263 263 264
262 263 264 265 264 263 263 263 264 264 268 269 268 267 266 265 264 263 263 264 264 264 265 264 264 263 262 263 263 264 264 263 262 262 262 262 261 261 262 262 262 263 263
261 262 263 263 264 265 265 264 264 264 264 264 263 263 263 262 262 262 262 262 262 262 262 262 262 261 261 260 260 260 260 260 260 259 259 259 260 260 260 261 262 263 264
260 261 261 262 262 262 262 262 262 262 262 262 262 261 261 261 261 261 261 261 261 261 260 260 260 260 260 260 259 259 260 261 259 257 258 259 259 260 261 261 262 263 264

GFSGL_sfc_thetae_045.txt.gz
Theta_e
290 290 290 291 291 291 292 292 293 293 293 294 295 295 295 295 294 294 293 293 292 292 292 292 291 292 291 290 290 290 290 292 291 282 286 286 286 285 284 284 285 283 284
288 288 288 289 289 288 287 288 290 291 292 292 292 292 293 293 293 293 292 291 291 290 291 290 290 289 290 289 288 288 288 288 288 281 281 282 284 284 283 281 282 282 283
286 286 287 287 287 286 285 286 287 288 289 291 290 290 290 291 291 292 292 291 290 291 290 289 289 289 288 288 287 287 286 282 285 284 280 281 281 283 282 281 282 281 281
285 285 285 286 286 284 284 284 285 285 286 288 289 289 289 289 289 289 289 289 289 290 290 289 289 288 287 287 286 286 284 283 283 284 282 279 280 281 281 279 278 281 281
284 284 284 285 285 283 282 284 284 283 284 286 286 288 288 288 287 288 288 288 287 288 288 287 288 288 288 288 286 285 284 283 282 282 282 279 278 277 278 280 280 280 281
283 283 284 283 283 281 281 281 282 282 283 283 284 285 286 287 289 290 290 287 287 286 286 287 287 286 286 289 290 289 286 284 282 282 282 279 279 279 279 279 279 278 277
282 282 282 281 282 280 280 280 279 279 281 281 282 283 284 286 289 290 289 287 287 286 286 286 285 285 285 284 288 289 288 289 288 284 282 281 280 279 280 279 279 279 279
281 281 281 280 280 280 278 278 278 278 278 279 280 282 283 283 286 288 288 287 286 286 286 286 285 285 284 283 284 284 284 284 286 285 284 284 283 282 281 281 280 280 280
280 280 280 280 279 278 275 276 277 276 276 276 278 279 281 282 285 286 287 286 285 285 286 286 285 285 285 287 283 282 283 282 286 288 286 286 285 285 283 280 277 276 275
279 279 279 279 277 276 275 275 275 275 275 275 276 277 279 280 283 285 285 285 284 285 285 285 285 284 287 287 283 282 281 281 281 282 281 283 284 283 283 281 279 276 275
278 277 277 277 276 276 274 274 273 272 272 272 273 275 276 279 280 284 285 284 284 284 284 284 284 286 286 286 286 283 283 283 282 279 279 280 280 280 280 280 280 279 275
275 274 273 273 274 274 272 271 270 270 269 269 271 272 275 278 281 283 285 285 286 284 283 285 285 285 286 287 285 285 285 283 280 278 278 278 277 277 279 278 278 278 278
269 267 267 268 269 269 268 268 267 268 268 268 269 271 273 277 280 283 284 284 284 284 284 285 286 285 285 286 286 286 284 281 279 278 277 277 277 277 276 275 275 276 275
263 263 263 263 264 265 266 266 266 266 266 267 267 269 271 275 278 280 281 280 281 282 283 283 285 283 283 283 282 285 283 280 279 278 277 276 275 273 272 273 272 272 271
260 261 261 261 261 262 263 264 264 265 266 265 266 267 268 269 273 279 280 279 280 280 281 281 280 279 279 280 280 281 281 278 277 277 275 272 272 272 271 272 271 271 269
259 260 260 260 260 261 261 261 266 267 269 270 271 271 270 273 276 277 279 281 283 283 281 277 277 277 277 278 278 278 276 276 275 274 272 272 270 270 270 270 271 269 268
259 259 260 260 260 260 260 259 259 262 267 268 269 270 272 273 275 276 278 281 284 283 279 277 276 277 277 278 276 274 273 274 273 272 271 271 270 270 269 269 269 269 268
259 259 259 260 260 260 260 260 260 259 258 260 265 267 269 271 273 275 278 282 280 281 279 276 276 277 278 275 274 273 272 271 271 271 270 270 270 269 268 268 268 267 267
259 260 260 261 261 261 260 260 260 259 259 259 261 264 265 269 273 276 279 277 278 278 277 276 277 278 275 273 273 272 271 270 270 270 269 269 269 268 268 268 268 267 267
259 260 261 261 262 262 261 260 260 259 259 260 260 261 263 266 269 274 276 278 279 279 277 277 276 275 274 273 271 270 270 269 269 268 268 267 268 268 267 266 266 265 265
259 260 261 262 263 263 263 261 260 260 260 260 260 263 268 267 270 273 274 279 279 278 275 273 273 272 272 271 270 269 268 268 267 266 266 266 266 266 266 267 266 266 266
261 262 262 262 263 264 265 263 262 261 261 261 262 264 270 269 272 273 272 272 272 273 272 272 270 270 269 269 268 267 266 266 266 265 265 265 265 265 265 265 265 265 265
261 261 262 263 265 265 265 264 263 263 262 263 264 265 269 268 268 268 268 268 269 268 269 268 267 267 268 268 268 267 266 265 265 265 264 264 264 264 264 264 264 264 264
261 261 261 262 263 264 265 265 265 265 265 266 265 264 264 264 264 264 265 265 265 265 265 265 265 265 265 266 266 266 265 265 265 265 265 263 263 263 263 263 264 263 263
260 260 260 261 261 262 262 263 263 263 263 263 262 262 263 263 262 262 263 263 263 263 263 263 263 263 263 263 262 263 265 264 263 264 264 263 262 262 262 262 262 262 262
259 259 260 260 260 260 261 261 260 261 261 261 261 261 261 261 261 261 262 262 261 261 262 261 261 261 261 260 261 262 263 262 261 261 261 260 260 259 259 258 258 257 259